Flag for United Kingdom Weather past 2 weeks in Newport (Isle of Wight), England, United Kingdom

Now
57 °F

Cool.


Feels Like: 53 °F
Forecast: 53 / 61 °F
Wind: 14 mph from West

Location: Solent M. R. S. C.

Current Time: Oct 22, 2014 at 3:16:47 PM

Latest Report: Oct 22, 2014 at 2:00 PM


Visibility: N/A

Pressure: 30.31 "Hg

Humidity: 68%

Dew point: 46 °F

Location of Newport (Isle of Wight)Location

Historic Weather in Newport (Isle of Wight) — Graph

°F

Newport (Isle of Wight) temperature yesterday

Maximum temperature yesterday: 59 °F (at 7:00 AM)
Minimum temperature yesterday: 50 °F (at 11:00 PM)
Average temperature yesterday: 56 °F

Past Weeks' High & Low Weather Summary

 TemperatureHumidityPressure
High65 °F (Oct 18, 1:00 PM)100% (Oct 15, 8:00 AM)30.34 "Hg (Oct 15, 8:00 AM)
Low47 °F (Oct 12, 5:00 AM)54% (Oct 21, 1:00 PM)29.32 "Hg (Oct 8, 3:00 PM)
Average58 °F87%29.75 "Hg
* Reported Oct 7 2:00 PM — Oct 22 2:00 PM, Newport (Isle of Wight), Weather by CustomWeather, © 2014

Note: Actual official high and low records may vary slightly from our data, if they occured in-between our weather recording intervals... More about our weather records

Advertising

Newport (Isle of Wight) weather history for previous 24 hours

 ConditionsComfort  
Time TempWeatherWind HumidityBarometerVisibility
2:00 PM
Oct 22
57 °FCool.14 mph68%30.31 "HgN/A
1:00 PM56 °FCool.14 mph66%30.32 "HgN/A
12:00 PM55 °FCool.15 mph70%30.32 "HgN/A
11:00 AM54 °FCool.15 mph69%30.33 "HgN/A
10:00 AM51 °FCool.14 mph76%30.34 "HgN/A
9:00 AM49 °FCool.16 mph78%30.34 "HgN/A
8:00 AM50 °FCool.17 mph79%30.32 "HgN/A
7:00 AM49 °FCool.20 mph83%30.30 "HgN/A
6:00 AM49 °FCool.20 mph84%30.29 "HgN/A
5:00 AM49 °FCool.20 mph82%30.29 "HgN/A
4:00 AM49 °FCool.20 mph79%30.28 "HgN/A
3:00 AM49 °FCool.20 mph77%30.28 "HgN/A
2:00 AM48 °FCool.18 mph77%30.27 "HgN/A
1:00 AM49 °FCool.15 mph75%30.25 "HgN/A
12:00 AM49 °FCool.15 mph64%30.21 "HgN/A
11:00 PM
Oct 21
50 °FCool.21 mph65%30.19 "HgN/A
10:00 PM50 °FCool.23 mph57%30.16 "HgN/A
9:00 PM51 °FCool.23 mph57%30.12 "HgN/A
8:00 PM51 °FCool.16 mph56%30.07 "HgN/A
7:00 PM53 °FCool.28 mph64%30.02 "HgN/A
6:00 PM53 °FCool.28 mph54%29.98 "HgN/A
5:00 PM56 °FRefreshingly cool.32 mph56%29.94 "HgN/A
4:00 PM56 °FRefreshingly cool.35 mph59%29.90 "HgN/A
3:00 PM58 °FRefreshingly cool.37 mph54%29.85 "HgN/A
Weather by CustomWeather, © 2014

See weather overviewHow to use our weather pages